Flag for Canada Weather past 2 weeks in Cumberland County, Nova Scotia, Canada

Now
18 °F

Cold.


Feels Like: 7 °F
Forecast: -7 / 18 °F
Wind: 10 mph from Southwest

Location: Kentville

Current Time: Feb 1, 2015 at 5:07:29 AM

Latest Report: Feb 1, 2015 at 4:00 AM


Visibility: N/A

Pressure: 29.49 "Hg

Humidity: 83%

Dew point: 14 °F

Location of Cumberland CountyLocation

Historic Weather in Cumberland County — Graph

°F

Cumberland County temperature yesterday

Maximum temperature yesterday: 29 °F (at 2:00 PM)
Minimum temperature yesterday: 24 °F (at 12:00 AM)
Average temperature yesterday: 27 °F

Past Weeks' High & Low Weather Summary

 TemperatureHumidityPressure
High50 °F (Jan 19, 10:00 AM)100% (Jan 24, 5:00 PM)30.37 "Hg (Jan 24, 5:00 PM)
Low3 °F (Jan 18, 2:00 AM)41% (Jan 23, 2:00 PM)28.58 "Hg (Jan 24, 11:00 PM)
Average23 °F82%29.82 "Hg
* Reported Jan 17 4:00 AM — Feb 1 4:00 AM, Cumberland County, Weather by CustomWeather, © 2014

Note: Actual official high and low records may vary slightly from our data, if they occured in-between our weather recording intervals... More about our weather records

Advertising

Cumberland County weather history for previous 24 hours

 ConditionsComfort  
Time TempWeatherWind HumidityBarometerVisibility
4:00 AM
Feb 1
18 °FCold.10 mph83%29.49 "HgN/A
3:00 AM19 °FCold.9 mph90%29.47 "HgN/A
2:00 AM24 °FCold.9 mph79%29.46 "HgN/A
1:00 AM23 °FCold.10 mph87%29.43 "HgN/A
12:00 AM24 °FCold.9 mph89%29.42 "HgN/A
11:00 PM
Jan 31
26 °FChilly.9 mph85%29.40 "HgN/A
10:00 PM25 °FCold.9 mph84%29.38 "HgN/A
9:00 PM25 °FChilly.10 mph85%29.36 "HgN/A
8:00 PM25 °FChilly.12 mph89%29.35 "HgN/A
7:00 PM26 °FChilly.8 mph93%29.32 "HgN/A
6:00 PM26 °FChilly.8 mph96%29.30 "HgN/A
5:00 PM28 °FChilly.7 mph96%29.26 "HgN/A
4:00 PM29 °FChilly.6 mph95%29.26 "HgN/A
3:00 PM29 °FChilly.3 mph91%29.26 "HgN/A
2:00 PM29 °FChilly.9 mph94%29.22 "HgN/A
1:00 PM28 °FChilly.7 mph96%29.24 "HgN/A
12:00 PM28 °FChilly.7 mph96%29.29 "HgN/A
11:00 AM29 °FChilly.7 mph97%29.31 "HgN/A
10:00 AM28 °FChilly.12 mph98%29.31 "HgN/A
9:00 AM28 °FChilly.9 mph100%29.34 "HgN/A
8:00 AM28 °FChilly.13 mph99%29.36 "HgN/A
7:00 AM27 °FChilly.12 mph99%29.39 "HgN/A
6:00 AM27 °FChilly.12 mph98%29.43 "HgN/A
5:00 AM26 °FChilly.10 mph98%29.47 "HgN/A
Weather by CustomWeather, © 2014

See weather overviewHow to use our weather pages